星链-11376 (STARLINK-11376)

导读

STARLINK-11376是美国SpaceX公司星链星座的卫星,于2024年10月18日发射,星链旨在低轨构建大规模卫星互联网,为全球提供高速宽带接入,该卫星运行于低地球轨道,配备天线与太阳能电池板,属于星链第二代组网卫星,助力扩大星座覆盖范围,提升全球偏远区域网络服务能力,推动卫星互联网的全球普及。

基本信息
目录编号:
61575
目录名称:
STARLINK-11376
国际标识:
2024-187B
轨道中心:
EARTH
卫星名称:
星链-11376
卫星全名:
星链-11376 (STARLINK-11376)
卫星状态:
在轨 (已飞行600 天)
发射日期:
2024-10-18 UTC
国别 :
美国 (US)
星等 :
--
轨道信息
数据来源 国际轨道数据
星历时间: 2026-06-09T17:24:15+0800
1天前
查看轨道信息
半长轴: 6737.887km
偏心率: 0.0001186
轨道倾角: 53.159°
近地点辐角 72.394°
升交点赤经 204.164°
平近点角 287.721°
近地点: 358.95km
远地点: 360.55km
周期: 91.737分钟
每日圈数: 15.697022
详细信息
固有亮度:
5
最大亮度:
2.5
卫星平台:
Starlink V1.0
覆盖范围:
全球
运营商:
太空探索技术公司
运营商所在国:
美国
制造商(研发单位):
太空探索技术公司
制造商所在国:
美国
使用方式:
暂无
卫星简介
Starlink 计划是 SpaceX 推出的全球卫星互联网项目,通过发射低轨道卫星,为全球尤其是偏远地区提供高速、低延迟的互联网服务。自 2019 年起,Starlink 已部署数千颗卫星,旨在缩小全球数字鸿沟,推动互联网普及。该项目还为军事、航空等行业提供通信支持,带来广泛经济效益。
2D轨道图
3D轨道图
轨道高度分析图
轨道倾角分析图
轨道综合分析图
查看轨道综合分析图